Time,TemperatureF,DewpointF,PressureIn,WindDirection,WindDirectionDegrees,WindSpeedMPH,WindSpeedGustMPH,Humidity,HourlyPrecipIn,Conditions,Clouds,dailyrainin,SoftwareType,DateUTC
2013-09-28 00:00:00,59.0,51.1,29.94,South,173,2.0,7.0,75,0.00,CLR,,0.00,WeatherDisplay:10.37,2013-09-28 05:00:00,
2013-09-28 00:05:00,59.0,51.1,29.93,South,183,1.0,4.0,75,0.00,CLR,,0.00,WeatherDisplay:10.37,2013-09-28 05:05:00,
2013-09-28 00:10:00,59.0,51.1,29.93,South,179,0.0,3.0,75,0.00,CLR,,0.00,WeatherDisplay:10.37,2013-09-28 05:10:00,
2013-09-28 00:15:00,59.2,51.3,29.93,SSW,196,0.0,2.0,75,0.00,CLR,,0.00,WeatherDisplay:10.37,2013-09-28 05:15:00,
2013-09-28 00:20:00,59.2,51.3,29.93,SSW,201,0.0,2.0,75,0.00,CLR,,0.00,WeatherDisplay:10.37,2013-09-28 05:20:00,
2013-09-28 00:25:00,59.2,51.6,29.93,South,191,0.0,2.0,76,0.00,CLR,,0.00,WeatherDisplay:10.37,2013-09-28 05:25:00,
2013-09-28 00:30:00,59.2,51.6,29.93,SE,127,0.0,8.0,76,0.00,CLR,,0.00,WeatherDisplay:10.37,2013-09-28 05:30:00,
2013-09-28 00:35:00,59.2,51.6,29.93,NNE,17,1.0,2.0,76,0.00,CLR,,0.00,WeatherDisplay:10.37,2013-09-28 05:35:00,
2013-09-28 00:40:00,59.1,51.6,29.93,NE,51,0.0,1.0,76,0.00,CLR,,0.00,WeatherDisplay:10.37,2013-09-28 05:40:00,
2013-09-28 00:45:00,59.0,51.4,29.93,East,87,0.0,2.0,76,0.00,CLR,,0.00,WeatherDisplay:10.37,2013-09-28 05:45:00,
2013-09-28 00:50:00,59.0,51.4,29.92,ESE,122,1.0,5.0,76,0.00,CLR,,0.00,WeatherDisplay:10.37,2013-09-28 05:50:00,
2013-09-28 00:55:00,59.2,51.6,29.92,SE,146,0.0,2.0,76,0.00,CLR,,0.00,WeatherDisplay:10.37,2013-09-28 05:55:00,
2013-09-28 01:00:00,59.2,52.0,29.92,SE,131,0.0,4.0,77,0.00,CLR,,0.00,WeatherDisplay:10.37,2013-09-28 06:00:00,
2013-09-28 01:05:00,59.2,52.0,29.92,SE,129,0.0,3.0,77,0.00,CLR,,0.00,WeatherDisplay:10.37,2013-09-28 06:05:00,
2013-09-28 01:10:00,59.2,52.0,29.92,SE,135,1.0,4.0,77,0.00,CLR,,0.00,WeatherDisplay:10.37,2013-09-28 06:10:00,
2013-09-28 01:15:00,59.2,52.0,29.92,SSW,213,0.0,2.0,77,0.00,CLR,,0.00,WeatherDisplay:10.37,2013-09-28 06:15:00,
2013-09-28 01:20:00,59.2,52.3,29.92,SW,221,0.0,4.0,78,0.00,CLR,,0.00,WeatherDisplay:10.37,2013-09-28 06:20:00,
2013-09-28 01:25:00,59.2,52.3,29.92,SSW,201,0.0,3.0,78,0.00,CLR,,0.00,WeatherDisplay:10.37,2013-09-28 06:25:00,
2013-09-28 01:30:00,59.2,52.3,29.92,SSE,157,0.0,4.0,78,0.00,CLR,,0.00,WeatherDisplay:10.37,2013-09-28 06:30:00,
2013-09-28 01:35:00,59.0,52.5,29.92,SSE,165,0.0,0.0,79,0.00,CLR,,0.00,WeatherDisplay:10.37,2013-09-28 06:35:00,
2013-09-28 01:40:00,59.0,52.1,29.92,SSE,163,1.0,5.0,78,0.00,CLR,,0.00,WeatherDisplay:10.37,2013-09-28 06:40:00,
2013-09-28 01:45:00,59.0,52.5,29.92,SE,142,0.0,3.0,79,0.00,CLR,,0.00,WeatherDisplay:10.37,2013-09-28 06:45:00,
2013-09-28 01:50:00,58.9,52.4,29.92,ESE,120,1.0,5.0,79,0.00,CLR,,0.00,WeatherDisplay:10.37,2013-09-28 06:50:00,
2013-09-28 01:55:00,58.9,52.4,29.92,SE,125,0.0,2.0,79,0.00,CLR,,0.00,WeatherDisplay:10.37,2013-09-28 06:55:00,
2013-09-28 02:00:00,58.9,52.4,29.92,SE,130,0.0,3.0,79,0.00,CLR,,0.00,WeatherDisplay:10.37,2013-09-28 07:00:00,
2013-09-28 02:05:00,58.7,52.2,29.92,SE,132,0.0,2.0,79,0.00,CLR,,0.00,WeatherDisplay:10.37,2013-09-28 07:05:00,
2013-09-28 02:10:00,58.7,52.2,29.92,SE,132,0.0,8.0,79,0.00,CLR,,0.00,WeatherDisplay:10.37,2013-09-28 07:10:00,
2013-09-28 02:15:00,58.6,52.1,29.92,SE,132,0.0,0.0,79,0.00,CLR,,0.00,WeatherDisplay:10.37,2013-09-28 07:15:00,
2013-09-28 02:20:00,58.4,52.2,29.92,SE,132,0.0,0.0,80,0.00,CLR,,0.00,WeatherDisplay:10.37,2013-09-28 07:20:00,
2013-09-28 02:25:00,58.1,52.0,29.92,SE,132,0.0,3.0,80,0.00,CLR,,0.00,WeatherDisplay:10.37,2013-09-28 07:25:00,
2013-09-28 02:30:00,58.0,52.2,29.92,SSE,147,0.0,3.0,81,0.00,CLR,,0.00,WeatherDisplay:10.37,2013-09-28 07:30:00,
2013-09-28 02:35:00,57.9,52.1,29.91,SSW,196,1.0,5.0,81,0.00,CLR,,0.00,WeatherDisplay:10.37,2013-09-28 07:35:00,
2013-09-28 02:40:00,57.8,52.0,29.91,SW,221,0.0,0.0,81,0.00,CLR,,0.00,WeatherDisplay:10.37,2013-09-28 07:40:00,
2013-09-28 02:45:00,57.8,52.0,29.91,SW,233,0.0,3.0,81,0.00,CLR,,0.00,WeatherDisplay:10.37,2013-09-28 07:45:00,
2013-09-28 02:50:00,57.8,52.3,29.91,SW,223,0.0,1.0,82,0.00,CLR,,0.00,WeatherDisplay:10.37,2013-09-28 07:50:00,
2013-09-28 02:55:00,57.8,52.3,29.91,SSW,196,1.0,3.0,82,0.00,CLR,,0.00,WeatherDisplay:10.37,2013-09-28 07:55:00,
2013-09-28 03:00:00,57.8,52.3,29.91,SSE,161,0.0,2.0,82,0.00,CLR,,0.00,WeatherDisplay:10.37,2013-09-28 08:00:00,
2013-09-28 03:05:00,57.8,52.3,29.91,SE,146,0.0,1.0,82,0.00,CLR,,0.00,WeatherDisplay:10.37,2013-09-28 08:05:00,
2013-09-28 03:10:00,58.0,52.2,29.91,SE,141,0.0,0.0,81,0.00,CLR,,0.00,WeatherDisplay:10.37,2013-09-28 08:10:00,
2013-09-28 03:15:00,58.0,51.9,29.91,SE,139,0.0,4.0,80,0.00,CLR,,0.00,WeatherDisplay:10.37,2013-09-28 08:15:00,
2013-09-28 03:20:00,58.0,51.9,29.91,SE,137,0.0,2.0,80,0.00,CLR,,0.00,WeatherDisplay:10.37,2013-09-28 08:20:00,
2013-09-28 03:25:00,57.8,51.7,29.91,SSE,168,1.0,3.0,80,0.00,CLR,,0.00,WeatherDisplay:10.37,2013-09-28 08:25:00,
2013-09-28 03:30:00,57.8,51.7,29.91,South,177,0.0,1.0,80,0.00,CLR,,0.00,WeatherDisplay:10.37,2013-09-28 08:30:00,
2013-09-28 03:35:00,58.0,51.9,29.91,SSE,158,0.0,6.0,80,0.00,CLR,,0.00,WeatherDisplay:10.37,2013-09-28 08:35:00,
2013-09-28 03:40:00,58.1,51.6,29.91,SSE,155,0.0,3.0,79,0.00,CLR,,0.00,WeatherDisplay:10.37,2013-09-28 08:40:00,
2013-09-28 03:45:00,58.3,51.8,29.91,SSE,148,1.0,5.0,79,0.00,CLR,,0.00,WeatherDisplay:10.37,2013-09-28 08:45:00,
2013-09-28 03:50:00,58.3,51.5,29.90,SSE,155,0.0,4.0,78,0.00,CLR,,0.00,WeatherDisplay:10.37,2013-09-28 08:50:00,
2013-09-28 03:55:00,58.4,51.6,29.90,South,182,0.0,5.0,78,0.00,CLR,,0.00,WeatherDisplay:10.37,2013-09-28 08:55:00,
2013-09-28 04:00:00,58.6,51.8,29.90,SSE,164,1.0,5.0,78,0.00,CLR,,0.00,WeatherDisplay:10.37,2013-09-28 09:00:00,
2013-09-28 04:05:00,58.6,51.8,29.90,SE,126,0.0,3.0,78,0.00,CLR,,0.00,WeatherDisplay:10.37,2013-09-28 09:05:00,
2013-09-28 04:10:00,58.6,51.8,29.90,ESE,115,0.0,2.0,78,0.00,CLR,,0.00,WeatherDisplay:10.37,2013-09-28 09:10:00,
2013-09-28 04:15:00,58.4,51.6,29.90,SSE,158,0.0,4.0,78,0.00,CLR,,0.00,WeatherDisplay:10.37,2013-09-28 09:15:00,
2013-09-28 04:20:00,58.6,51.8,29.90,South,179,0.0,3.0,78,0.00,CLR,,0.00,WeatherDisplay:10.37,2013-09-28 09:20:00,
2013-09-28 04:25:00,58.6,51.8,29.90,South,178,0.0,6.0,78,0.00,CLR,,0.00,WeatherDisplay:10.37,2013-09-28 09:25:00,
2013-09-28 04:30:00,58.4,51.9,29.90,ESE,117,0.0,6.0,79,0.00,CLR,,0.00,WeatherDisplay:10.37,2013-09-28 09:30:00,
2013-09-28 04:35:00,58.4,52.3,29.90,ESE,116,0.0,5.0,80,0.00,CLR,,0.00,WeatherDisplay:10.37,2013-09-28 09:35:00,
2013-09-28 04:40:00,58.3,52.5,29.90,SE,132,0.0,2.0,81,0.00,CLR,,0.00,WeatherDisplay:10.37,2013-09-28 09:40:00,
2013-09-28 04:45:00,58.3,52.5,29.90,SE,135,0.0,5.0,81,0.00,CLR,,0.00,WeatherDisplay:10.37,2013-09-28 09:45:00,
2013-09-28 04:50:00,58.1,52.6,29.90,SE,145,0.0,5.0,82,0.00,CLR,,0.00,WeatherDisplay:10.37,2013-09-28 09:50:00,
2013-09-28 04:55:00,58.1,53.0,29.90,SSE,159,0.0,3.0,83,0.00,CLR,,0.00,WeatherDisplay:10.37,2013-09-28 09:55:00,
2013-09-28 05:00:00,58.1,53.3,29.90,SSE,165,0.0,3.0,84,0.00,CLR,,0.00,WeatherDisplay:10.37,2013-09-28 10:00:00,
2013-09-28 05:05:00,58.1,53.3,29.90,SE,145,0.0,2.0,84,0.00,CLR,,0.00,WeatherDisplay:10.37,2013-09-28 10:05:00,
2013-09-28 05:10:00,58.1,53.6,29.90,ESE,120,0.0,3.0,85,0.00,CLR,,0.00,WeatherDisplay:10.37,2013-09-28 10:10:00,
2013-09-28 05:15:00,58.1,53.6,29.90,South,173,0.0,4.0,85,0.00,CLR,,0.00,WeatherDisplay:10.37,2013-09-28 10:15:00,
2013-09-28 05:20:00,58.0,53.5,29.90,South,171,1.0,4.0,85,0.00,CLR,,0.00,WeatherDisplay:10.37,2013-09-28 10:20:00,
2013-09-28 05:25:00,57.8,53.6,29.90,SSE,157,0.0,4.0,86,0.00,CLR,,0.00,WeatherDisplay:10.37,2013-09-28 10:25:00,
2013-09-28 05:30:00,57.8,53.6,29.90,SE,144,0.0,5.0,86,0.00,CLR,,0.00,WeatherDisplay:10.37,2013-09-28 10:30:00,
2013-09-28 05:35:00,57.6,53.8,29.91,SSE,150,0.0,3.0,87,0.00,CLR,,0.00,WeatherDisplay:10.37,2013-09-28 10:35:00,
2013-09-28 05:40:00,57.6,53.8,29.91,SW,235,0.0,1.0,87,0.00,CLR,,0.00,WeatherDisplay:10.37,2013-09-28 10:40:00,
2013-09-28 05:45:00,57.5,53.7,29.91,WSW,244,0.0,2.0,87,0.00,CLR,,0.00,WeatherDisplay:10.37,2013-09-28 10:45:00,
2013-09-28 05:50:00,57.3,53.5,29.90,SW,231,1.0,2.0,87,0.00,CLR,,0.00,WeatherDisplay:10.37,2013-09-28 10:50:00,
2013-09-28 05:55:00,57.1,53.6,29.90,SSW,204,0.0,4.0,88,0.00,CLR,,0.00,WeatherDisplay:10.37,2013-09-28 10:55:00,
2013-09-28 06:00:00,56.9,53.4,29.90,SE,133,0.0,3.0,88,0.00,CLR,,0.00,WeatherDisplay:10.37,2013-09-28 11:00:00,
2013-09-28 06:05:00,56.7,53.2,29.90,SE,138,0.0,5.0,88,0.00,CLR,,0.00,WeatherDisplay:10.37,2013-09-28 11:05:00,
2013-09-28 06:10:00,56.6,53.4,29.90,SSE,147,0.0,1.0,89,0.00,CLR,,0.00,WeatherDisplay:10.37,2013-09-28 11:10:00,
2013-09-28 06:15:00,56.5,53.3,29.90,SSE,147,0.0,3.0,89,0.00,CLR,,0.00,WeatherDisplay:10.37,2013-09-28 11:15:00,
2013-09-28 06:20:00,56.5,53.3,29.91,SE,145,0.0,0.0,89,0.00,CLR,,0.00,WeatherDisplay:10.37,2013-09-28 11:20:00,
2013-09-28 06:25:00,56.3,53.1,29.91,SE,145,0.0,2.0,89,0.00,CLR,,0.00,WeatherDisplay:10.37,2013-09-28 11:25:00,
2013-09-28 06:30:00,56.2,53.0,29.91,SE,144,1.0,4.0,89,0.00,CLR,,0.00,WeatherDisplay:10.37,2013-09-28 11:30:00,
2013-09-28 06:35:00,56.2,53.3,29.91,SE,145,0.0,3.0,90,0.00,CLR,,0.00,WeatherDisplay:10.37,2013-09-28 11:35:00,
2013-09-28 06:40:00,56.2,53.3,29.91,SSE,148,0.0,1.0,90,0.00,CLR,,0.00,WeatherDisplay:10.37,2013-09-28 11:40:00,
2013-09-28 06:45:00,56.2,53.3,29.91,SE,127,1.0,6.0,90,0.00,CLR,,0.00,WeatherDisplay:10.37,2013-09-28 11:45:00,
2013-09-28 06:50:00,56.2,53.3,29.92,ESE,118,0.0,0.0,90,0.00,CLR,,0.00,WeatherDisplay:10.37,2013-09-28 11:50:00,
2013-09-28 06:55:00,56.3,53.4,29.92,SE,130,0.0,5.0,90,0.00,CLR,,0.00,WeatherDisplay:10.37,2013-09-28 11:55:00,
2013-09-28 07:00:00,56.3,53.4,29.92,SSE,148,0.0,7.0,90,0.00,CLR,,0.00,WeatherDisplay:10.37,2013-09-28 12:00:00,
2013-09-28 07:05:00,56.5,53.6,29.91,SE,139,0.0,3.0,90,0.00,CLR,,0.00,WeatherDisplay:10.37,2013-09-28 12:05:00,
2013-09-28 07:10:00,56.6,53.7,29.91,SSE,151,0.0,5.0,90,0.00,CLR,,0.00,WeatherDisplay:10.37,2013-09-28 12:10:00,
2013-09-28 07:15:00,56.7,53.5,29.91,SSE,167,0.0,5.0,89,0.00,CLR,,0.00,WeatherDisplay:10.37,2013-09-28 12:15:00,
2013-09-28 07:20:00,56.9,53.7,29.91,SSE,149,0.0,6.0,89,0.00,CLR,,0.00,WeatherDisplay:10.37,2013-09-28 12:20:00,
2013-09-28 07:25:00,57.1,53.5,29.91,SE,132,2.0,9.0,88,0.00,CLR,,0.00,WeatherDisplay:10.37,2013-09-28 12:25:00,
2013-09-28 07:30:00,57.3,53.8,29.91,SE,136,1.0,9.0,88,0.00,CLR,,0.00,WeatherDisplay:10.37,2013-09-28 12:30:00,
2013-09-28 07:35:00,57.5,53.7,29.91,SSW,192,1.0,5.0,87,0.00,CLR,,0.00,WeatherDisplay:10.37,2013-09-28 12:35:00,
2013-09-28 07:40:00,57.6,53.8,29.91,SSE,159,0.0,7.0,87,0.00,CLR,,0.00,WeatherDisplay:10.37,2013-09-28 12:40:00,
2013-09-28 07:45:00,58.0,53.8,29.91,ESE,111,0.0,4.0,86,0.00,CLR,,0.00,WeatherDisplay:10.37,2013-09-28 12:45:00,
2013-09-28 07:50:00,58.1,53.9,29.89,ESE,107,0.0,4.0,86,0.00,CLR,,0.00,WeatherDisplay:10.37,2013-09-28 12:50:00,
2013-09-28 07:55:00,58.3,53.8,29.89,SSE,156,0.0,8.0,85,0.00,CLR,,0.00,WeatherDisplay:10.37,2013-09-28 12:55:00,
2013-09-28 08:00:00,58.4,53.9,29.89,SSW,195,0.0,2.0,85,0.00,CLR,,0.00,WeatherDisplay:10.37,2013-09-28 13:00:00,
2013-09-28 08:05:00,58.6,54.1,29.90,SE,146,0.0,3.0,85,0.00,CLR,,0.00,WeatherDisplay:10.37,2013-09-28 13:05:00,
2013-09-28 08:10:00,58.7,54.2,29.90,SE,139,0.0,4.0,85,0.00,CLR,,0.00,WeatherDisplay:10.37,2013-09-28 13:10:00,
2013-09-28 08:15:00,59.0,54.2,29.90,SSE,160,0.0,2.0,84,0.00,CLR,,0.00,WeatherDisplay:10.37,2013-09-28 13:15:00,
2013-09-28 08:20:00,59.2,54.4,29.89,SE,136,0.0,3.0,84,0.00,CLR,,0.00,WeatherDisplay:10.37,2013-09-28 13:20:00,
2013-09-28 08:25:00,59.3,54.5,29.89,SE,146,0.0,2.0,84,0.00,CLR,,0.00,WeatherDisplay:10.37,2013-09-28 13:25:00,
2013-09-28 08:30:00,59.6,54.8,29.89,South,170,0.0,5.0,84,0.00,CLR,,0.00,WeatherDisplay:10.37,2013-09-28 13:30:00,
2013-09-28 08:35:00,59.8,55.0,29.89,SSE,161,0.0,5.0,84,0.00,CLR,,0.00,WeatherDisplay:10.37,2013-09-28 13:35:00,
2013-09-28 08:40:00,60.1,54.9,29.89,SSE,150,0.0,3.0,83,0.00,CLR,,0.00,WeatherDisplay:10.37,2013-09-28 13:40:00,
2013-09-28 08:45:00,60.4,55.2,29.89,SSE,162,0.0,3.0,83,0.00,CLR,,0.00,WeatherDisplay:10.37,2013-09-28 13:45:00,
2013-09-28 08:55:00,61.0,55.1,29.89,West,276,0.0,3.0,81,0.00,CLR,,0.00,WeatherDisplay:10.37,2013-09-28 13:55:00,
2013-09-28 09:00:00,61.4,55.5,29.89,ESE,107,0.0,4.0,81,0.00,CLR,,0.00,WeatherDisplay:10.37,2013-09-28 14:00:00,
2013-09-28 09:05:00,61.8,55.9,29.89,SSW,207,0.0,4.0,81,0.00,CLR,,0.00,WeatherDisplay:10.37,2013-09-28 14:05:00,
2013-09-28 09:10:00,62.1,55.9,29.89,WSW,250,0.0,4.0,80,0.00,CLR,,0.00,WeatherDisplay:10.37,2013-09-28 14:10:00,
2013-09-28 09:15:00,62.5,56.2,29.89,WNW,284,0.0,1.0,80,0.00,CLR,,0.00,WeatherDisplay:10.37,2013-09-28 14:15:00,
2013-09-28 09:20:00,62.7,56.4,29.89,WNW,282,0.0,3.0,80,0.00,CLR,,0.00,WeatherDisplay:10.37,2013-09-28 14:20:00,
2013-09-28 09:25:00,63.1,56.5,29.89,SW,214,1.0,3.0,79,0.00,CLR,,0.00,WeatherDisplay:10.37,2013-09-28 14:25:00,
2013-09-28 09:30:00,63.4,56.4,29.89,SSW,202,0.0,1.0,78,0.00,CLR,,0.00,WeatherDisplay:10.37,2013-09-28 14:30:00,
2013-09-28 09:35:00,63.9,56.9,29.88,SSW,199,1.0,4.0,78,0.00,CLR,,0.00,WeatherDisplay:10.37,2013-09-28 14:35:00,
2013-09-28 09:40:00,64.2,56.8,29.88,SSW,205,0.0,3.0,77,0.00,CLR,,0.00,WeatherDisplay:10.37,2013-09-28 14:40:00,
2013-09-28 09:45:00,64.6,57.2,29.88,SW,215,0.0,5.0,77,0.00,CLR,,0.00,WeatherDisplay:10.37,2013-09-28 14:45:00,
2013-09-28 09:50:00,65.0,56.9,29.87,South,179,0.0,5.0,75,0.00,CLR,,0.00,WeatherDisplay:10.37,2013-09-28 14:50:00,
2013-09-28 09:55:00,65.5,57.4,29.87,South,170,1.0,4.0,75,0.00,CLR,,0.00,WeatherDisplay:10.37,2013-09-28 14:55:00,
2013-09-28 10:00:00,66.0,57.5,29.87,SE,142,2.0,5.0,74,0.00,CLR,,0.00,WeatherDisplay:10.37,2013-09-28 15:00:00,
2013-09-28 10:05:00,66.4,57.5,29.87,SSW,207,0.0,7.0,73,0.00,CLR,,0.00,WeatherDisplay:10.37,2013-09-28 15:05:00,
2013-09-28 10:10:00,66.9,58.0,29.87,SSW,199,0.0,5.0,73,0.00,CLR,,0.00,WeatherDisplay:10.37,2013-09-28 15:10:00,
2013-09-28 10:15:00,67.4,58.4,29.87,South,189,1.0,6.0,73,0.00,CLR,,0.00,WeatherDisplay:10.37,2013-09-28 15:15:00,
2013-09-28 10:20:00,67.8,58.4,29.86,SSW,205,1.0,5.0,72,0.00,CLR,,0.00,WeatherDisplay:10.37,2013-09-28 15:20:00,
2013-09-28 10:25:00,68.1,57.9,29.86,SSW,208,1.0,6.0,70,0.00,CLR,,0.00,WeatherDisplay:10.37,2013-09-28 15:25:00,
2013-09-28 10:30:00,68.4,58.3,29.86,SSW,206,3.0,6.0,70,0.00,CLR,,0.00,WeatherDisplay:10.37,2013-09-28 15:30:00,
2013-09-28 10:35:00,68.9,58.3,29.86,SSW,202,1.0,8.0,69,0.00,CLR,,0.00,WeatherDisplay:10.37,2013-09-28 15:35:00,
2013-09-28 10:40:00,69.3,58.7,29.86,SSW,201,2.0,6.0,69,0.00,CLR,,0.00,WeatherDisplay:10.37,2013-09-28 15:40:00,
2013-09-28 10:45:00,69.7,58.6,29.86,SSW,203,2.0,8.0,68,0.00,CLR,,0.00,WeatherDisplay:10.37,2013-09-28 15:45:00,
2013-09-28 10:50:00,69.9,58.9,29.85,SSW,207,3.0,10.0,68,0.00,CLR,,0.00,WeatherDisplay:10.37,2013-09-28 15:50:00,
2013-09-28 10:55:00,70.1,58.6,29.85,SSW,210,2.0,10.0,67,0.00,CLR,,0.00,WeatherDisplay:10.37,2013-09-28 15:55:00,
2013-09-28 11:00:00,70.4,58.9,29.85,SW,229,2.0,7.0,67,0.00,CLR,,0.00,WeatherDisplay:10.37,2013-09-28 16:00:00,
2013-09-28 11:05:00,70.8,59.3,29.84,SW,231,1.0,7.0,67,0.00,CLR,,0.00,WeatherDisplay:10.37,2013-09-28 16:05:00,
2013-09-28 11:10:00,71.3,59.4,29.84,SSW,205,2.0,10.0,66,0.00,CLR,,0.00,WeatherDisplay:10.37,2013-09-28 16:10:00,
2013-09-28 11:15:00,71.6,59.6,29.84,SSW,210,2.0,6.0,66,0.00,CLR,,0.00,WeatherDisplay:10.37,2013-09-28 16:15:00,
2013-09-28 11:20:00,72.0,59.2,29.84,SW,219,2.0,8.0,64,0.00,CLR,,0.00,WeatherDisplay:10.37,2013-09-28 16:20:00,
2013-09-28 11:25:00,72.0,59.2,29.84,South,189,3.0,10.0,64,0.00,CLR,,0.00,WeatherDisplay:10.37,2013-09-28 16:25:00,
2013-09-28 11:30:00,72.2,59.3,29.84,SSW,201,5.0,8.0,64,0.00,CLR,,0.00,WeatherDisplay:10.37,2013-09-28 16:30:00,
2013-09-28 11:35:00,72.5,60.1,29.83,SSW,209,1.0,8.0,65,0.00,CLR,,0.00,WeatherDisplay:10.37,2013-09-28 16:35:00,
2013-09-28 11:40:00,72.7,60.7,29.83,SSW,194,1.0,5.0,66,0.00,CLR,,0.00,WeatherDisplay:10.37,2013-09-28 16:40:00,
2013-09-28 11:45:00,72.7,59.8,29.83,South,190,1.0,5.0,64,0.00,CLR,,0.00,WeatherDisplay:10.37,2013-09-28 16:45:00,
2013-09-28 11:50:00,72.8,59.9,29.82,South,191,1.0,5.0,64,0.00,CLR,,0.00,WeatherDisplay:10.37,2013-09-28 16:50:00,
2013-09-28 11:55:00,72.8,59.9,29.82,South,191,1.0,4.0,64,0.00,CLR,,0.00,WeatherDisplay:10.37,2013-09-28 16:55:00,
2013-09-28 12:00:00,72.8,59.0,29.82,SSW,203,2.0,8.0,62,0.00,CLR,,0.00,WeatherDisplay:10.37,2013-09-28 17:00:00,
2013-09-28 12:05:00,73.3,59.5,29.81,SSW,208,1.0,6.0,62,0.00,CLR,,0.00,WeatherDisplay:10.37,2013-09-28 17:05:00,
2013-09-28 12:10:00,73.7,60.3,29.81,SW,220,2.0,5.0,63,0.00,CLR,,0.00,WeatherDisplay:10.37,2013-09-28 17:10:00,
2013-09-28 12:15:00,73.9,59.1,29.81,SW,225,1.0,7.0,60,0.00,CLR,,0.00,WeatherDisplay:10.37,2013-09-28 17:15:00,
2013-09-28 12:20:00,74.2,59.9,29.80,SSW,213,2.0,7.0,61,0.00,CLR,,0.00,WeatherDisplay:10.37,2013-09-28 17:20:00,
2013-09-28 12:25:00,74.6,60.3,29.80,SSW,205,2.0,8.0,61,0.00,CLR,,0.00,WeatherDisplay:10.37,2013-09-28 17:25:00,
2013-09-28 12:30:00,75.0,61.1,29.80,SSW,213,1.0,7.0,62,0.00,CLR,,0.00,WeatherDisplay:10.37,2013-09-28 17:30:00,
2013-09-28 12:35:00,75.3,60.5,29.79,SSW,194,1.0,5.0,60,0.00,CLR,,0.00,WeatherDisplay:10.37,2013-09-28 17:35:00,
2013-09-28 12:40:00,75.3,60.9,29.79,SSE,157,2.0,5.0,61,0.00,CLR,,0.00,WeatherDisplay:10.37,2013-09-28 17:40:00,
2013-09-28 12:45:00,75.3,60.5,29.79,South,183,2.0,6.0,60,0.00,CLR,,0.00,WeatherDisplay:10.37,2013-09-28 17:45:00,
2013-09-28 12:50:00,75.3,60.9,29.77,SSW,202,0.0,7.0,61,0.00,CLR,,0.00,WeatherDisplay:10.37,2013-09-28 17:50:00,
2013-09-28 12:55:00,75.3,61.4,29.77,SSW,198,2.0,12.0,62,0.00,CLR,,0.00,WeatherDisplay:10.37,2013-09-28 17:55:00,
2013-09-28 13:00:00,75.5,61.1,29.77,SSW,208,2.0,12.0,61,0.00,CLR,,0.00,WeatherDisplay:10.37,2013-09-28 18:00:00,
2013-09-28 13:05:00,75.6,61.7,29.77,SSW,212,0.0,9.0,62,0.00,CLR,,0.00,WeatherDisplay:10.37,2013-09-28 18:05:00,
2013-09-28 13:10:00,75.8,61.4,29.77,SW,216,2.0,8.0,61,0.00,CLR,,0.00,WeatherDisplay:10.37,2013-09-28 18:10:00,
2013-09-28 13:15:00,75.8,61.4,29.77,SSW,208,1.0,12.0,61,0.00,CLR,,0.00,WeatherDisplay:10.37,2013-09-28 18:15:00,
2013-09-28 13:20:00,75.6,61.7,29.75,SSW,205,2.0,7.0,62,0.00,CLR,,0.00,WeatherDisplay:10.37,2013-09-28 18:20:00,
2013-09-28 13:25:00,75.5,62.0,29.75,SSW,198,1.0,8.0,63,0.00,CLR,,0.00,WeatherDisplay:10.37,2013-09-28 18:25:00,
2013-09-28 13:30:00,76.0,62.0,29.75,SSW,195,2.0,6.0,62,0.00,CLR,,0.00,WeatherDisplay:10.37,2013-09-28 18:30:00,
2013-09-28 13:35:00,76.5,62.0,29.75,SSW,198,1.0,6.0,61,0.00,CLR,,0.00,WeatherDisplay:10.37,2013-09-28 18:35:00,
2013-09-28 13:40:00,76.9,62.0,29.75,SSW,205,2.0,6.0,60,0.00,CLR,,0.00,WeatherDisplay:10.37,2013-09-28 18:40:00,
2013-09-28 13:45:00,77.2,62.2,29.75,SSW,198,6.0,10.0,60,0.00,CLR,,0.00,WeatherDisplay:10.37,2013-09-28 18:45:00,
2013-09-28 13:50:00,77.4,61.5,29.74,SW,216,5.0,13.0,58,0.00,CLR,,0.00,WeatherDisplay:10.37,2013-09-28 18:50:00,
2013-09-28 13:55:00,77.7,61.7,29.74,SSW,207,5.0,14.0,58,0.00,CLR,,0.00,WeatherDisplay:10.37,2013-09-28 18:55:00,
2013-09-28 14:00:00,77.6,61.7,29.74,SSW,211,6.0,13.0,58,0.00,CLR,,0.00,WeatherDisplay:10.37,2013-09-28 19:00:00,
2013-09-28 14:05:00,77.6,61.2,29.73,SSW,211,7.0,12.0,57,0.00,CLR,,0.00,WeatherDisplay:10.37,2013-09-28 19:05:00,
2013-09-28 14:10:00,77.7,60.8,29.73,SSW,203,7.0,14.0,56,0.00,CLR,,0.00,WeatherDisplay:10.37,2013-09-28 19:10:00,
2013-09-28 14:15:00,77.7,60.3,29.73,SSW,204,7.0,15.0,55,0.00,CLR,,0.00,WeatherDisplay:10.37,2013-09-28 19:15:00,
2013-09-28 14:20:00,77.9,61.4,29.73,SSW,208,5.0,10.0,57,0.00,CLR,,0.00,WeatherDisplay:10.37,2013-09-28 19:20:00,
2013-09-28 14:25:00,78.1,61.6,29.73,SSW,208,6.0,12.0,57,0.00,CLR,,0.00,WeatherDisplay:10.37,2013-09-28 19:25:00,
2013-09-28 14:30:00,78.3,61.8,29.73,SSW,207,5.0,10.0,57,0.00,CLR,,0.00,WeatherDisplay:10.37,2013-09-28 19:30:00,
2013-09-28 14:35:00,78.3,61.8,29.73,SSW,208,5.0,12.0,57,0.00,CLR,,0.00,WeatherDisplay:10.37,2013-09-28 19:35:00,
2013-09-28 14:40:00,78.1,61.6,29.73,SSW,204,5.0,12.0,57,0.00,CLR,,0.00,WeatherDisplay:10.37,2013-09-28 19:40:00,
2013-09-28 14:45:00,78.1,61.6,29.73,SSW,206,6.0,13.0,57,0.00,CLR,,0.00,WeatherDisplay:10.37,2013-09-28 19:45:00,
2013-09-28 14:50:00,78.1,61.6,29.72,SSW,210,6.0,12.0,57,0.00,CLR,,0.00,WeatherDisplay:10.37,2013-09-28 19:50:00,
2013-09-28 14:55:00,78.3,62.3,29.72,SSW,206,5.0,12.0,58,0.00,CLR,,0.00,WeatherDisplay:10.37,2013-09-28 19:55:00,
2013-09-28 15:00:00,78.3,63.3,29.72,SSW,202,5.0,9.0,60,0.00,CLR,,0.00,WeatherDisplay:10.37,2013-09-28 20:00:00,
2013-09-28 15:05:00,78.3,62.3,29.72,SSW,198,3.0,8.0,58,0.00,CLR,,0.00,WeatherDisplay:10.37,2013-09-28 20:05:00,
2013-09-28 15:10:00,78.5,62.5,29.72,SSW,201,6.0,13.0,58,0.00,CLR,,0.00,WeatherDisplay:10.37,2013-09-28 20:10:00,
2013-09-28 15:15:00,78.6,63.1,29.72,SSW,202,5.0,8.0,59,0.00,CLR,,0.00,WeatherDisplay:10.37,2013-09-28 20:15:00,
2013-09-28 15:20:00,78.5,62.0,29.71,SSW,201,5.0,13.0,57,0.00,CLR,,0.00,WeatherDisplay:10.37,2013-09-28 20:20:00,
2013-09-28 15:25:00,78.1,62.6,29.71,SSW,204,3.0,10.0,59,0.00,CLR,,0.00,WeatherDisplay:10.37,2013-09-28 20:25:00,
2013-09-28 15:30:00,77.9,62.4,29.71,SSW,207,6.0,13.0,59,0.00,CLR,,0.00,WeatherDisplay:10.37,2013-09-28 20:30:00,
2013-09-28 15:35:00,77.9,62.4,29.70,SSW,203,5.0,12.0,59,0.00,CLR,,0.00,WeatherDisplay:10.37,2013-09-28 20:35:00,
2013-09-28 15:40:00,77.8,61.8,29.70,SSW,202,7.0,12.0,58,0.00,CLR,,0.00,WeatherDisplay:10.37,2013-09-28 20:40:00,
2013-09-28 15:45:00,77.5,62.1,29.70,SSW,205,5.0,12.0,59,0.00,CLR,,0.00,WeatherDisplay:10.37,2013-09-28 20:45:00,
2013-09-28 15:50:00,77.2,61.8,29.70,SSW,202,5.0,14.0,59,0.00,CLR,,0.00,WeatherDisplay:10.37,2013-09-28 20:50:00,
2013-09-28 15:55:00,77.0,61.6,29.70,SSW,204,6.0,22.0,59,0.00,CLR,,0.00,WeatherDisplay:10.37,2013-09-28 20:55:00,
2013-09-28 16:00:00,77.0,61.6,29.70,SSW,206,7.0,13.0,59,0.00,CLR,,0.00,WeatherDisplay:10.37,2013-09-28 21:00:00,
2013-09-28 16:05:00,77.0,62.0,29.69,SSW,202,6.0,9.0,60,0.00,CLR,,0.00,WeatherDisplay:10.37,2013-09-28 21:05:00,
2013-09-28 16:10:00,77.2,62.2,29.69,SSW,200,6.0,15.0,60,0.00,CLR,,0.00,WeatherDisplay:10.37,2013-09-28 21:10:00,
2013-09-28 16:15:00,77.2,61.8,29.69,SSW,203,5.0,10.0,59,0.00,CLR,,0.00,WeatherDisplay:10.37,2013-09-28 21:15:00,
2013-09-28 16:20:00,77.0,62.0,29.69,SSW,207,6.0,10.0,60,0.00,CLR,,0.00,WeatherDisplay:10.37,2013-09-28 21:20:00,
2013-09-28 16:25:00,76.8,62.3,29.69,SSW,207,5.0,10.0,61,0.00,CLR,,0.00,WeatherDisplay:10.37,2013-09-28 21:25:00,
2013-09-28 16:30:00,76.5,61.6,29.69,SSW,211,7.0,12.0,60,0.00,CLR,,0.00,WeatherDisplay:10.37,2013-09-28 21:30:00,
2013-09-28 16:35:00,76.5,62.0,29.69,SSW,209,3.0,8.0,61,0.00,CLR,,0.00,WeatherDisplay:10.37,2013-09-28 21:35:00,
2013-09-28 16:40:00,76.3,61.8,29.69,SSW,207,5.0,10.0,61,0.00,CLR,,0.00,WeatherDisplay:10.37,2013-09-28 21:40:00,
2013-09-28 16:45:00,76.0,62.5,29.69,SSW,210,5.0,9.0,63,0.00,CLR,,0.00,WeatherDisplay:10.37,2013-09-28 21:45:00,
2013-09-28 16:50:00,75.8,62.3,29.69,SW,225,2.0,9.0,63,0.00,CLR,,0.00,WeatherDisplay:10.37,2013-09-28 21:50:00,
2013-09-28 17:00:00,75.6,62.1,29.69,SSW,201,3.0,7.0,63,0.00,CLR,,0.00,WeatherDisplay:10.37,2013-09-28 22:00:00,
2013-09-28 17:05:00,75.6,61.7,29.69,SSW,202,3.0,8.0,62,0.00,CLR,,0.00,WeatherDisplay:10.37,2013-09-28 22:05:00,
2013-09-28 17:10:00,75.6,61.7,29.69,SSW,205,3.0,8.0,62,0.00,CLR,,0.00,WeatherDisplay:10.37,2013-09-28 22:10:00,
2013-09-28 17:15:00,75.5,62.4,29.69,SSW,209,3.0,8.0,64,0.00,CLR,,0.00,WeatherDisplay:10.37,2013-09-28 22:15:00,
2013-09-28 17:20:00,75.4,62.3,29.69,SSW,203,3.0,7.0,64,0.00,CLR,,0.00,WeatherDisplay:10.37,2013-09-28 22:20:00,
2013-09-28 17:25:00,75.3,62.3,29.69,SSW,201,5.0,7.0,64,0.00,CLR,,0.00,WeatherDisplay:10.37,2013-09-28 22:25:00,
2013-09-28 17:30:00,75.1,62.1,29.69,SSW,211,5.0,12.0,64,0.00,CLR,,0.00,WeatherDisplay:10.37,2013-09-28 22:30:00,
2013-09-28 17:35:00,75.1,62.1,29.69,SW,214,5.0,9.0,64,0.00,CLR,,0.00,WeatherDisplay:10.37,2013-09-28 22:35:00,
2013-09-28 17:40:00,74.9,62.8,29.69,SSW,211,3.0,7.0,66,0.00,CLR,,0.00,WeatherDisplay:10.37,2013-09-28 22:40:00,
2013-09-28 17:45:00,74.7,62.6,29.69,SSW,205,5.0,12.0,66,0.00,CLR,,0.00,WeatherDisplay:10.37,2013-09-28 22:45:00,
2013-09-28 17:50:00,74.6,62.9,29.71,SSW,210,6.0,10.0,67,0.00,CLR,,0.00,WeatherDisplay:10.37,2013-09-28 22:50:00,
2013-09-28 17:55:00,74.6,63.3,29.71,SSW,213,5.0,8.0,68,0.00,CLR,,0.00,WeatherDisplay:10.37,2013-09-28 22:55:00,
2013-09-28 18:00:00,74.2,63.8,29.71,SSW,213,7.0,12.0,70,0.00,CLR,,0.00,WeatherDisplay:10.37,2013-09-28 23:00:00,
2013-09-28 18:05:00,73.9,64.3,29.71,SW,215,5.0,7.0,72,0.00,CLR,,0.00,WeatherDisplay:10.37,2013-09-28 23:05:00,
2013-09-28 18:10:00,73.5,64.7,29.71,SW,226,3.0,9.0,74,0.00,CLR,,0.00,WeatherDisplay:10.37,2013-09-28 23:10:00,
2013-09-28 18:15:00,72.8,64.8,29.71,SSW,212,3.0,9.0,76,0.00,CLR,,0.00,WeatherDisplay:10.37,2013-09-28 23:15:00,
2013-09-28 18:20:00,72.3,65.4,29.72,SW,223,3.0,9.0,79,0.00,CLR,,0.00,WeatherDisplay:10.37,2013-09-28 23:20:00,
2013-09-28 18:25:00,71.8,66.0,29.72,SW,223,3.0,8.0,82,0.00,CLR,,0.00,WeatherDisplay:10.37,2013-09-28 23:25:00,
2013-09-28 18:30:00,71.1,66.0,29.72,SW,214,3.0,9.0,84,0.00,CLR,,0.00,WeatherDisplay:10.37,2013-09-28 23:30:00,
2013-09-28 18:35:00,70.5,66.1,29.72,SSW,212,2.0,8.0,86,0.00,CLR,,0.00,WeatherDisplay:10.37,2013-09-28 23:35:00,
2013-09-28 18:40:00,70.1,66.0,29.72,SSW,213,2.0,8.0,87,0.00,CLR,,0.00,WeatherDisplay:10.37,2013-09-28 23:40:00,
2013-09-28 18:45:00,69.8,66.4,29.72,SSW,212,3.0,10.0,89,0.00,CLR,,0.00,WeatherDisplay:10.37,2013-09-28 23:45:00,
2013-09-28 18:50:00,69.3,66.6,29.73,SSW,209,3.0,7.0,91,0.01,RA,,0.01,WeatherDisplay:10.37,2013-09-28 23:50:00,
2013-09-28 18:55:00,68.9,66.5,29.73,SSW,210,1.0,6.0,92,0.01,RA,,0.02,WeatherDisplay:10.37,2013-09-28 23:55:00,
2013-09-28 19:00:00,68.6,66.8,29.73,SSW,211,2.0,8.0,94,0.00,RA,,0.02,WeatherDisplay:10.37,2013-09-29 00:00:00,
2013-09-28 19:05:00,68.4,66.9,29.72,SSW,211,3.0,6.0,95,0.01,RA,,0.03,WeatherDisplay:10.37,2013-09-29 00:05:00,
2013-09-28 19:10:00,68.1,66.6,29.72,WSW,238,2.0,8.0,95,0.00,RA,,0.03,WeatherDisplay:10.37,2013-09-29 00:10:00,
2013-09-28 19:15:00,67.9,66.7,29.72,SW,220,2.0,7.0,96,0.01,RA,,0.04,WeatherDisplay:10.37,2013-09-29 00:15:00,
2013-09-28 19:20:00,67.8,66.6,29.72,SSW,200,2.0,7.0,96,0.00,RA,,0.04,WeatherDisplay:10.37,2013-09-29 00:20:00,
2013-09-28 19:25:00,67.8,66.9,29.72,SSW,211,1.0,7.0,97,0.00,CLR,,0.04,WeatherDisplay:10.37,2013-09-29 00:25:00,
2013-09-28 19:30:00,67.6,66.7,29.72,SSW,208,2.0,8.0,97,0.01,RA,,0.05,WeatherDisplay:10.37,2013-09-29 00:30:00,
2013-09-28 19:35:00,67.6,66.7,29.73,SSW,212,1.0,6.0,97,0.00,RA,,0.05,WeatherDisplay:10.37,2013-09-29 00:35:00,
2013-09-28 19:40:00,67.6,67.0,29.73,SW,216,2.0,7.0,98,0.00,,,0.05,WeatherDisplay:10.37,2013-09-29 00:40:00,
2013-09-28 19:45:00,67.3,66.4,29.73,SW,223,3.0,8.0,97,0.00,CLR,,0.05,WeatherDisplay:10.37,2013-09-29 00:45:00,
2013-09-28 19:50:00,64.7,62.4,29.74,West,272,1.0,9.0,92,0.01,RA,,0.06,WeatherDisplay:10.37,2013-09-29 00:50:00,
2013-09-28 19:55:00,63.2,61.4,29.74,WNW,289,2.0,7.0,94,0.01,RA,,0.07,WeatherDisplay:10.37,2013-09-29 00:55:00,
2013-09-28 20:00:00,62.6,61.1,29.74,NW,317,0.0,4.0,95,0.01,RA,,0.08,WeatherDisplay:10.37,2013-09-29 01:00:00,
2013-09-28 20:05:00,62.0,60.6,29.76,NW,307,2.0,5.0,95,0.00,RA,,0.08,WeatherDisplay:10.37,2013-09-29 01:05:00,
2013-09-28 20:10:00,60.9,59.5,29.76,NNW,329,1.0,8.0,95,0.00,CLR,,0.08,WeatherDisplay:10.37,2013-09-29 01:10:00,
2013-09-28 20:20:00,60.1,59.0,29.76,NNW,339,2.0,6.0,96,0.00,CLR,,0.08,WeatherDisplay:10.37,2013-09-29 01:20:00,
2013-09-28 20:25:00,60.1,59.2,29.76,North,358,1.0,5.0,97,0.00,CLR,,0.08,WeatherDisplay:10.37,2013-09-29 01:25:00,
2013-09-28 20:30:00,60.1,59.2,29.76,NNW,345,2.0,6.0,97,0.00,CLR,,0.08,WeatherDisplay:10.37,2013-09-29 01:30:00,
2013-09-28 20:35:00,60.1,59.2,29.77,NNW,332,1.0,9.0,97,0.00,CLR,,0.08,WeatherDisplay:10.37,2013-09-29 01:35:00,
2013-09-28 20:40:00,59.8,58.7,29.77,NW,317,1.0,5.0,96,0.00,CLR,,0.08,WeatherDisplay:10.37,2013-09-29 01:40:00,
2013-09-28 20:45:00,59.7,58.6,29.77,NW,325,0.0,4.0,96,0.00,CLR,,0.08,WeatherDisplay:10.37,2013-09-29 01:45:00,
2013-09-28 20:50:00,59.8,58.7,29.78,NNE,28,0.0,6.0,96,0.00,CLR,,0.08,WeatherDisplay:10.37,2013-09-29 01:50:00,
2013-09-28 20:55:00,59.6,58.5,29.78,NNE,14,0.0,2.0,96,0.00,CLR,,0.08,WeatherDisplay:10.37,2013-09-29 01:55:00,
2013-09-28 21:00:00,59.5,58.4,29.78,NW,320,0.0,3.0,96,0.01,RA,,0.09,WeatherDisplay:10.37,2013-09-29 02:00:00,
2013-09-28 21:05:00,59.3,58.4,29.78,NW,322,1.0,3.0,97,0.00,RA,,0.09,WeatherDisplay:10.37,2013-09-29 02:05:00,
2013-09-28 21:10:00,58.9,57.8,29.78,NNW,344,2.0,12.0,96,0.00,CLR,,0.09,WeatherDisplay:10.37,2013-09-29 02:10:00,
2013-09-28 21:15:00,58.6,57.8,29.78,NNW,348,1.0,12.0,97,0.00,CLR,,0.09,WeatherDisplay:10.37,2013-09-29 02:15:00,
2013-09-28 21:20:00,58.1,57.2,29.79,North,352,2.0,13.0,97,0.00,CLR,,0.09,WeatherDisplay:10.37,2013-09-29 02:20:00,
2013-09-28 21:25:00,57.6,56.8,29.79,North,350,3.0,9.0,97,0.01,RA,,0.10,WeatherDisplay:10.37,2013-09-29 02:25:00,
2013-09-28 21:30:00,57.1,56.3,29.79,NNW,348,3.0,17.0,97,0.01,RA,,0.11,WeatherDisplay:10.37,2013-09-29 02:30:00,
2013-09-28 21:35:00,56.6,55.8,29.80,NNW,343,1.0,5.0,97,0.00,RA,,0.11,WeatherDisplay:10.37,2013-09-29 02:35:00,
2013-09-28 21:45:00,55.5,54.3,29.80,NNW,334,0.0,9.0,96,0.01,RA,,0.13,WeatherDisplay:10.37,2013-09-29 02:45:00,
2013-09-28 21:50:00,55.3,54.5,29.81,NNW,336,3.0,6.0,97,0.01,RA,,0.14,WeatherDisplay:10.37,2013-09-29 02:50:00,
2013-09-28 21:55:00,55.1,54.3,29.81,NNW,338,0.0,6.0,97,0.00,RA,,0.14,WeatherDisplay:10.37,2013-09-29 02:55:00,
2013-09-28 22:00:00,55.0,54.2,29.81,NNW,342,0.0,4.0,97,0.00,CLR,,0.14,WeatherDisplay:10.37,2013-09-29 03:00:00,
2013-09-28 22:05:00,55.0,54.2,29.81,North,350,0.0,0.0,97,0.01,RA,,0.15,WeatherDisplay:10.37,2013-09-29 03:05:00,
2013-09-28 22:10:00,55.1,54.3,29.81,North,350,0.0,2.0,97,0.00,RA,,0.15,WeatherDisplay:10.37,2013-09-29 03:10:00,
2013-09-28 22:15:00,55.0,54.2,29.81,NNW,339,0.0,4.0,97,0.00,,,0.15,WeatherDisplay:10.37,2013-09-29 03:15:00,
2013-09-28 22:20:00,55.0,54.2,29.81,NNW,330,0.0,3.0,97,0.00,CLR,,0.15,WeatherDisplay:10.37,2013-09-29 03:20:00,
2013-09-28 22:25:00,55.0,53.9,29.81,NW,325,0.0,4.0,96,0.00,CLR,,0.15,WeatherDisplay:10.37,2013-09-29 03:25:00,
2013-09-28 22:35:00,55.0,53.9,29.81,NNW,328,0.0,5.0,96,0.00,CLR,,0.15,WeatherDisplay:10.37,2013-09-29 03:35:00,
2013-09-28 22:45:00,55.1,54.0,29.81,NNW,330,0.0,1.0,96,0.00,CLR,,0.15,WeatherDisplay:10.37,2013-09-29 03:45:00,
2013-09-28 22:50:00,55.3,54.2,29.82,NNW,329,0.0,3.0,96,0.00,CLR,,0.15,WeatherDisplay:10.37,2013-09-29 03:50:00,
2013-09-28 23:00:00,55.5,54.6,29.82,NNW,329,0.0,0.0,97,0.00,CLR,,0.15,WeatherDisplay:10.37,2013-09-29 04:00:00,
2013-09-28 23:05:00,55.6,54.8,29.83,NNW,329,0.0,0.0,97,0.00,CLR,,0.15,WeatherDisplay:10.37,2013-09-29 04:05:00,
2013-09-28 23:10:00,55.7,54.9,29.83,NNW,329,0.0,0.0,97,0.00,CLR,,0.15,WeatherDisplay:10.37,2013-09-29 04:10:00,
2013-09-28 23:15:00,55.7,54.9,29.83,NNW,329,0.0,0.0,97,0.00,CLR,,0.15,WeatherDisplay:10.37,2013-09-29 04:15:00,
2013-09-28 23:20:00,55.6,54.8,29.84,NW,323,0.0,2.0,97,0.00,CLR,,0.15,WeatherDisplay:10.37,2013-09-29 04:20:00,
2013-09-28 23:25:00,55.6,54.8,29.84,WNW,301,0.0,1.0,97,0.00,CLR,,0.15,WeatherDisplay:10.37,2013-09-29 04:25:00,
2013-09-28 23:30:00,55.6,54.8,29.84,West,277,0.0,0.0,97,0.00,CLR,,0.15,WeatherDisplay:10.37,2013-09-29 04:30:00,
2013-09-28 23:35:00,55.6,54.8,29.83,West,277,0.0,1.0,97,0.00,CLR,,0.15,WeatherDisplay:10.37,2013-09-29 04:35:00,
2013-09-28 23:40:00,55.6,54.8,29.83,West,278,0.0,2.0,97,0.00,CLR,,0.15,WeatherDisplay:10.37,2013-09-29 04:40:00,
2013-09-28 23:45:00,55.4,54.6,29.83,West,279,0.0,2.0,97,0.00,CLR,,0.15,WeatherDisplay:10.37,2013-09-29 04:45:00,
2013-09-28 23:50:00,55.3,54.5,29.84,West,277,0.0,2.0,97,0.00,CLR,,0.15,WeatherDisplay:10.37,2013-09-29 04:50:00,
2013-09-28 23:55:00,55.1,54.3,29.84,West,271,0.0,2.0,97,0.00,CLR,,0.15,WeatherDisplay:10.37,2013-09-29 04:55:00,